Flag for Canada Weather past 2 weeks in Peterborough, Ontario, Canada

Now
27 °F

Light snow. Overcast.


Feels Like: 17 °F
Forecast: -5 / 25 °F
Wind: 10 mph from Northwest

Location: Peterborough Airport

Current Time: Jan 30, 2015 at 2:04:29 AM

Latest Report: Jan 30, 2015 at 1:00 AM


Visibility: 9 mi

Pressure: 29.83 "Hg

Humidity: 100%

Dew point: 27 °F

Location of PeterboroughLocation

Historic Weather in Peterborough — Graph

°F

Peterborough temperature yesterday

Maximum temperature yesterday: 30 °F (at 3:57 PM)
Minimum temperature yesterday: 5 °F (at 12:00 AM)
Average temperature yesterday: 22 °F

Past Weeks' High & Low Weather Summary

 TemperatureHumidityPressure
High39 °F (Jan 18, 4:00 AM)100% (Jan 18, 4:00 PM)30.38 "Hg (Jan 18, 4:00 PM)
Low-11 °F (Jan 17, 1:00 AM)23% (Jan 27, 4:00 PM)29.44 "Hg (Jan 24, 4:00 PM)
Average17 °F76%30.00 "Hg
* Reported Jan 15 1:00 AM — Jan 30 1:00 AM, Peterborough, Weather by CustomWeather, © 2014

Note: Actual official high and low records may vary slightly from our data, if they occured in-between our weather recording intervals... More about our weather records

Advertising

Peterborough weather history for previous 24 hours

 ConditionsComfort  
Time TempWeatherWind HumidityBarometerVisibility
1:00 AM
Jan 30
27 °FLight snow. Overcast.10 mph100%29.83 "Hg9 mi
12:00 AM27 °FOvercast.9 mph100%29.80 "Hg9 mi
11:00 PM
Jan 29
27 °FLight snow. Mostly cloudy.8 mph100%29.79 "Hg4 mi
10:00 PM28 °FLight snow. Overcast.8 mph93%29.77 "Hg2 mi
9:46 PM28 °FLight snow. Overcast.7 mph93%29.77 "Hg2 mi
9:00 PM28 °FLight snow. Overcast.9 mph93%29.76 "Hg2 mi
8:51 PM28 °FLight snow. Overcast.8 mph93%29.76 "Hg2 mi
8:00 PM28 °FLight snow. Mostly cloudy.2 mph100%29.75 "Hg3 mi
7:00 PM28 °FLight snow. Mostly cloudy.No wind100%29.75 "Hg1 mi
6:00 PM28 °FLight snow. Mostly cloudy.2 mph100%29.75 "Hg4 mi
5:54 PM28 °FLight snow. Mostly cloudy.2 mph100%29.75 "Hg3 mi
5:00 PM28 °FSnow. Low clouds.6 mph100%29.75 "Hg1 mi
4:00 PM30 °FLight snow. Ice fog.9 mph93%29.75 "Hg2 mi
3:57 PM30 °FLight snow. Mostly cloudy.8 mph93%29.75 "Hg2 mi
3:00 PM27 °FLight snow. Ice fog.6 mph100%29.77 "Hg1 mi
2:56 PM27 °FSnow. Ice fog.6 mph100%29.77 "Hg1 mi
2:00 PM27 °FLight snow. Ice fog.8 mph93%29.80 "Hg1 mi
1:04 PM27 °FLight snow. Cloudy.7 mph74%29.85 "Hg9 mi
12:00 PM27 °FMore clouds than sun.10 mph80%29.91 "Hg9 mi
11:46 AM27 °FLight snow. Cloudy.10 mph80%29.91 "Hg9 mi
11:00 AM27 °FMostly cloudy.14 mph64%29.97 "Hg9 mi
10:00 AM27 °FOvercast.9 mph59%30.01 "Hg9 mi
9:00 AM25 °FOvercast.7 mph63%30.07 "Hg9 mi
8:00 AM18 °FOvercast.3 mph86%30.13 "Hg9 mi
7:00 AM12 °FMostly cloudy.No wind92%30.16 "Hg9 mi
6:00 AM10 °FOvercast.No wind85%30.18 "Hg9 mi
5:00 AM7 °FPassing clouds.No wind92%30.21 "Hg9 mi
4:00 AM7 °FPassing clouds.No wind85%30.25 "Hg9 mi
3:00 AM7 °FPassing clouds.No wind85%30.26 "Hg9 mi
2:00 AM7 °FMostly cloudy.No wind85%30.27 "Hg9 mi
Weather by CustomWeather, © 2014

See weather overviewHow to use our weather pages